EW7216 Weather Reports


Display with metric or nautical units.
time (UTC)temp
F
wind
direction
speed
MPH
gust
MPH
rain 1hr
in
rain 24hr
in
rain mn
in
humidity
%
barometer
mb
20260503032546 51 0.0 0.0 0.00 0.00 0.00 82 1025.2
20260503031536 51 343 1.0 2.0 0.00 0.00 0.00 80 1025.4
20260503030526 51 291 0.0 1.0 0.00 0.00 0.00 76 1025.4
20260503025536 51 328 1.0 3.0 0.00 0.00 0.00 75 1025.5
20260503024607 51 0.0 1.0 0.00 0.00 0.00 77 1025.4
20260503023557 51 337 0.0 1.0 0.00 0.00 0.00 80 1025.5
20260503022547 51 0.0 0.0 0.00 0.00 0.00 80 1025.7
20260503021537 51 0.0 0.0 0.00 0.00 0.00 78 1025.7
20260503020528 51 0.0 0.0 0.00 0.00 0.00 78 1025.6
20260503015517 51 330 0.0 1.0 0.00 0.00 0.00 79 1025.5
20260503014608 51 329 0.0 1.0 0.00 0.00 0.00 79 1025.7
20260503013618 52 0.0 1.0 0.00 0.00 0.00 78 1025.7
20260503012629 52 306 1.0 2.0 0.00 0.00 0.00 78 1025.7
20260503011538 51 328 0.0 1.0 0.00 0.00 0.00 77 1025.8
20260503010528 52 0.0 0.0 0.00 0.00 0.00 76 1025.9
20260503005519 52 0.0 0.0 0.00 0.00 0.00 75 1026.1
20260503004610 53 336 0.0 2.0 0.00 0.00 0.00 73 1026.2
20260503003600 52 316 0.0 1.0 0.00 0.00 0.00 75 1026.4
20260503002610 52 0.0 0.0 0.00 0.00 0.00 73 1026.4
20260503001540 52 0.0 0.0 0.00 0.00 0.00 73 1026.5
20260503000529 52 0.0 0.0 0.00 0.00 0.00 73 1026.6
20260502235519 53 0.0 0.0 0.00 0.00 0.00 73 1026.5
20260502234610 53 287 0.0 1.0 0.00 0.00 0.00 72 1026.8
20260502233600 53 313 1.0 2.0 0.00 0.00 0.00 71 1026.8
20260502232550 53 298 2.0 3.0 0.00 0.00 0.00 68 1027.0
20260502231600 53 307 2.0 4.0 0.00 0.00 0.00 67 1027.1
20260502230530 53 267 3.0 3.0 0.00 0.00 0.00 66 1027.2
20260502225541 53 295 3.0 6.0 0.00 0.00 0.00 64 1027.3
20260502224612 54 306 3.0 4.0 0.00 0.00 0.00 64 1027.3
20260502223606 54 319 3.0 4.0 0.00 0.00 0.00 62 1027.2
20260502222554 54 314 2.0 3.0 0.00 0.00 0.00 59 1027.3
20260502221541 54 327 1.0 3.0 0.00 0.00 0.00 59 1027.3
20260502220531 55 297 2.0 3.0 0.00 0.00 0.00 57 1027.3
20260502215521 55 300 2.0 4.0 0.00 0.00 0.00 55 1027.4
20260502214612 55 278 2.0 4.0 0.00 0.00 0.00 54 1027.4
20260502213602 55 303 2.0 4.0 0.00 0.00 0.00 52 1027.5
20260502212552 55 306 3.0 6.0 0.00 0.00 0.00 50 1027.3
20260502211542 55 309 2.0 3.0 0.00 0.00 0.00 50 1027.3
20260502210533 56 344 1.0 3.0 0.00 0.00 0.00 50 1027.4
20260502205542 56 297 1.0 3.0 0.00 0.00 0.00 50 1027.4
20260502204613 55 299 1.0 3.0 0.00 0.00 0.00 52 1027.4
20260502203603 55 292 2.0 4.0 0.00 0.00 0.00 55 1027.6
20260502202553 55 318 3.0 6.0 0.00 0.00 0.00 56 1027.5
20260502201543 55 298 3.0 6.0 0.00 0.00 0.00 57 1027.5
20260502200533 55 298 4.0 7.0 0.00 0.00 0.00 56 1027.6
20260502195523 55 298 3.0 6.0 0.00 0.00 0.00 57 1027.5
20260502194614 55 304 4.0 6.0 0.00 0.00 0.00 59 1027.3
20260502193604 55 303 4.0 9.0 0.00 0.00 0.00 63 1027.2
20260502192554 55 281 5.0 8.0 0.00 0.00 0.00 66 1027.0
20260502191544 55 290 4.0 7.0 0.00 0.00 0.00 68 1027.0
20260502190534 55 328 5.0 8.0 0.00 0.00 0.00 67 1026.8
20260502185524 55 298 4.0 8.0 0.00 0.00 0.00 65 1026.7
20260502184656 56 320 5.0 9.0 0.00 0.00 0.00 64 1026.7
20260502183606 56 299 4.0 8.0 0.00 0.00 0.00 63 1026.5
20260502182555 57 303 5.0 10.0 0.00 0.00 0.00 62 1026.5
20260502181606 57 291 4.0 7.0 0.00 0.00 0.00 61 1026.4
20260502180535 58 291 6.0 9.0 0.00 0.00 0.00 59 1026.3
20260502163628 62 310 6.0 10.0 0.00 0.00 0.00 49 1025.8
20260502162557 63 301 5.0 11.0 0.00 0.00 0.00 48 1025.8
20260502161609 63 298 4.0 9.0 0.00 0.00 0.00 47 1025.8
20260502160537 63 335 6.0 10.0 0.00 0.00 0.00 46 1025.8
20260502151549 64 324 4.0 13.0 0.00 0.00 0.00 47 1025.8
20260502150539 66 286 5.0 14.0 0.00 0.00 0.00 45 1025.8
20260502130541 65 356 3.0 7.0 0.00 0.00 0.00 41 1026.9
20260502123631 64 313 4.0 9.0 0.00 0.00 0.00 42 1027.1
20260502122601 63 319 4.0 9.0 0.00 0.00 0.00 42 1027.2
20260502121551 64 306 4.0 9.0 0.00 0.00 0.00 43 1027.0
20260502120541 64 309 4.0 8.0 0.00 0.00 0.00 43 1027.1
20260502115531 63 325 5.0 11.0 0.00 0.00 0.00 42 1027.2
20260502114541 63 342 3.0 9.0 0.00 0.00 0.00 42 1027.3
20260502113612 63 290 4.0 8.0 0.00 0.00 0.00 42 1027.4
20260502112602 63 343 3.0 8.0 0.00 0.00 0.00 42 1027.4
20260502111552 65 322 3.0 7.0 0.00 0.00 0.00 40 1027.5
20260502110542 64 142 1.0 3.0 0.00 0.00 0.00 41 1027.6
20260502105532 64 351 3.0 9.0 0.00 0.00 0.00 43 1027.9
20260502104542 64 33 1.0 3.0 0.00 0.00 0.00 41 1027.9
20260502103613 63 320 2.0 6.0 0.00 0.00 0.00 41 1028.0
20260502102603 61 311 4.0 9.0 0.00 0.00 0.00 43 1027.9
20260502101553 61 342 3.0 9.0 0.00 0.00 0.00 43 1028.0
20260502100543 62 314 3.0 7.0 0.00 0.00 0.00 43 1028.1
20260502090544 61 70 2.0 3.0 0.00 0.00 0.00 43 1028.4
20260502070546 54 24 0.0 2.0 0.00 0.00 0.00 47 1028.4
20260502065538 53 0.0 0.0 0.00 0.00 0.00 48 1028.4
20260502064527 53 0.0 0.0 0.00 0.00 0.00 47 1028.4
20260502063516 52 0.0 0.0 0.00 0.00 0.00 44 1028.2
20260502062607 51 0.0 0.0 0.00 0.00 0.00 46 1028.3
20260502061618 51 0.0 0.0 0.00 0.00 0.00 47 1028.3
20260502060547 50 90 1.0 1.0 0.00 0.00 0.00 48 1028.2
20260502055538 50 0.0 1.0 0.00 0.00 0.00 49 1028.3
20260502054527 49 0.0 0.0 0.00 0.00 0.00 50 1028.2
20260502053518 49 0.0 0.0 0.00 0.00 0.00 50 1028.1
20260502052608 49 0.0 0.0 0.00 0.00 0.00 51 1028.2
20260502051558 49 0.0 0.0 0.00 0.00 0.00 51 1028.2
20260502050548 49 0.0 0.0 0.00 0.00 0.00 50 1028.1
20260502045558 51 0.0 0.0 0.00 0.00 0.00 48 1027.9
20260502044528 50 154 2.0 4.0 0.00 0.00 0.00 46 1027.8
20260502043538 51 147 1.0 3.0 0.00 0.00 0.00 45 1027.8
20260502042609 52 272 1.0 2.0 0.00 0.00 0.00 42 1027.8
20260502041559 53 211 0.0 2.0 0.00 0.00 0.00 42 1027.7
20260502040549 53 315 1.0 3.0 0.00 0.00 0.00 41 1027.8
20260502035559 53 165 2.0 4.0 0.00 0.00 0.00 41 1027.7
20260502034529 52 172 1.0 3.0 0.00 0.00 0.00 41 1027.8
20260502033519 52 0.0 1.0 0.00 0.00 0.00 41 1027.9